GW0890 Weather Reports


Display with metric or nautical units.
time (UTC)temp
F
wind
direction
speed
MPH
gust
MPH
rain 1hr
in
rain 24hr
in
rain mn
in
humidity
%
barometer
mb
20220930033038 47 286 0.0 0.0 0.00 0.00 0.00 93 1024.6
20220930031538 47 286 0.0 1.0 0.00 0.00 0.00 93 1024.6
20220930030036 47 286 0.0 1.0 0.00 0.00 0.00 93 1024.8
20220930024534 48 286 0.0 2.0 0.00 0.00 0.00 93 1024.8
20220930023034 48 258 0.0 1.0 0.00 0.00 0.00 92 1024.8
20220930021634 48 259 0.0 4.0 0.00 0.00 0.00 92 1024.9
20220930020056 49 223 0.0 1.0 0.00 0.00 0.00 91 1025.0
20220930014529 49 223 0.0 2.0 0.00 0.00 0.00 90 1024.9
20220930013036 50 223 0.0 2.0 0.00 0.00 0.00 90 1024.8
20220930011528 51 223 0.0 2.0 0.00 0.00 0.00 89 1024.7
20220930010027 51 187 0.0 2.0 0.00 0.00 0.00 87 1024.6
20220930004539 52 205 1.0 4.0 0.00 0.00 0.00 86 1024.5
20220930003027 53 205 0.0 4.0 0.00 0.00 0.00 84 1024.5
20220930001524 54 209 1.0 3.0 0.00 0.00 0.00 82 1024.4
20220930000049 55 196 1.0 3.0 0.00 0.00 0.00 79 1024.4
20220929234512 57 205 0.0 2.0 0.00 0.00 0.00 75 1024.6
20220929233039 59 204 0.0 2.0 0.00 0.00 0.00 71 1024.5
20220929231518 61 207 0.0 4.0 0.00 0.00 0.00 66 1024.5
20220929230042 62 167 0.0 6.0 0.00 0.00 0.00 64 1024.5
20220929224511 63 224 2.0 7.0 0.00 0.00 0.00 62 1024.5
20220929223016 63 165 2.0 13.0 0.00 0.00 0.00 62 1024.3
20220929221507 64 150 6.0 12.0 0.00 0.00 0.00 61 1024.4
20220929220008 64 178 2.0 16.0 0.00 0.00 0.00 60 1024.5
20220929214503 64 122 4.0 19.0 0.00 0.00 0.00 60 1024.4
20220929213002 64 138 7.0 15.0 0.00 0.00 0.00 60 1024.6
20220929211635 65 198 6.0 14.0 0.00 0.00 0.00 59 1024.8
20220929210200 64 211 6.0 14.0 0.00 0.00 0.00 58 1024.8
20220929204528 64 169 9.0 19.0 0.00 0.00 0.00 58 1024.9
20220929203037 65 238 2.0 14.0 0.00 0.00 0.00 61 1025.0
20220929201529 65 202 9.0 14.0 0.00 0.00 0.00 58 1025.4
20220929200027 65 134 7.0 14.0 0.00 0.00 0.00 59 1025.3
20220929194531 64 188 4.0 13.0 0.00 0.00 0.00 61 1025.6
20220929193019 64 127 6.0 13.0 0.00 0.00 0.00 59 1025.6
20220929191549 64 166 8.0 16.0 0.00 0.00 0.00 60 1025.5
20220929190047 64 173 7.0 13.0 0.00 0.00 0.00 60 1026.0
20220929184544 63 171 9.0 19.0 0.00 0.00 0.00 62 1026.0
20220929183052 64 189 2.0 19.0 0.00 0.00 0.00 61 1026.3
20220929181547 63 186 4.0 16.0 0.00 0.00 0.00 63 1026.7
20220929180037 64 201 5.0 18.0 0.00 0.00 0.00 62 1026.9
20220929174533 64 279 3.0 13.0 0.00 0.00 0.00 63 1027.1
20220929173036 62 159 7.0 15.0 0.00 0.00 0.00 64 1027.4
20220929171601 63 225 6.0 16.0 0.00 0.00 0.00 65 1027.4
20220929170110 62 265 7.0 13.0 0.00 0.00 0.00 65 1027.6
20220929164527 61 217 8.0 16.0 0.00 0.00 0.00 67 1027.7
20220929163024 60 210 11.0 18.0 0.00 0.00 0.00 68 1027.8
20220929161520 60 209 5.0 15.0 0.00 0.00 0.00 72 1027.9
20220929160018 59 214 11.0 20.0 0.00 0.00 0.00 70 1028.0
20220929154521 59 186 7.0 14.0 0.00 0.00 0.00 72 1028.1
20220929153017 58 261 8.0 12.0 0.00 0.00 0.00 74 1028.4
20220929151508 58 283 9.0 14.0 0.00 0.00 0.00 77 1028.5
20220929150012 57 195 5.0 12.0 0.00 0.00 0.00 78 1028.8
20220929144506 56 162 5.0 14.0 0.00 0.00 0.00 81 1028.8
20220929143002 56 264 4.0 8.0 0.00 0.00 0.00 83 1028.8
20220929141600 54 229 7.0 12.0 0.00 0.00 0.00 85 1028.9
20220929140101 54 258 3.0 14.0 0.00 0.00 0.00 87 1028.9
20220929134553 53 238 4.0 9.0 0.00 0.00 0.00 92 1028.9
20220929133048 51 192 5.0 11.0 0.00 0.00 0.00 96 1028.5
20220929131545 50 178 4.0 10.0 0.00 0.00 0.00 97 1028.8
20220929130041 50 194 3.0 9.0 0.00 0.00 0.00 98 1028.9
20220929124549 49 201 3.0 10.0 0.00 0.00 0.00 98 1028.9
20220929123037 46 111 0.0 2.0 0.00 0.00 0.00 98 1029.0
20220929121545 46 268 0.0 2.0 0.00 0.00 0.00 97 1029.1
20220929120035 45 224 0.0 2.0 0.00 0.00 0.00 97 1029.0
20220929114529 44 223 0.0 1.0 0.00 0.00 0.00 97 1028.7
20220929113028 44 224 0.0 2.0 0.00 0.00 0.00 97 1028.7
20220929111527 43 225 0.0 1.0 0.00 0.00 0.00 97 1028.5
20220929110032 43 225 0.0 1.0 0.00 0.00 0.00 97 1028.5
20220929104535 42 225 0.0 1.0 0.00 0.00 0.00 97 1028.4
20220929103034 42 225 0.0 1.0 0.00 0.00 0.00 97 1028.2
20220929101523 42 225 0.0 0.0 0.00 0.00 0.00 97 1028.2
20220929100018 42 225 0.0 0.0 0.00 0.00 0.00 96 1028.3
20220929094518 41 225 0.0 2.0 0.00 0.00 0.00 96 1028.2
20220929093016 41 225 0.0 0.0 0.00 0.00 0.00 96 1028.1
20220929091517 41 225 0.0 0.0 0.00 0.00 0.00 96 1028.2
20220929090014 41 225 0.0 0.0 0.00 0.00 0.00 96 1028.1
20220929084513 41 225 0.0 0.0 0.00 0.00 0.00 96 1028.1
20220929083012 41 225 0.0 0.0 0.00 0.00 0.00 96 1028.2
20220929081511 41 225 0.0 0.0 0.00 0.00 0.00 95 1028.3
20220929080007 41 225 0.0 0.0 0.00 0.00 0.00 95 1028.4
20220929074507 41 225 0.0 0.0 0.00 0.00 0.00 95 1028.4
20220929073027 42 225 0.0 0.0 0.00 0.00 0.00 95 1028.5
20220929071504 42 225 0.0 0.0 0.00 0.00 0.00 95 1028.5
20220929070005 42 225 0.0 0.0 0.00 0.00 0.00 95 1028.3
20220929064501 42 225 0.0 0.0 0.00 0.00 0.00 95 1028.4
20220929063037 43 225 0.0 1.0 0.00 0.00 0.00 95 1028.1
20220929061531 43 225 0.0 1.0 0.00 0.00 0.00 95 1028.2
20220929060024 43 225 0.0 1.0 0.00 0.00 0.00 95 1028.2
20220929054523 44 225 0.0 1.0 0.00 0.00 0.00 94 1028.2
20220929053022 44 225 0.0 1.0 0.00 0.00 0.00 94 1028.1
20220929051520 44 225 0.0 0.0 0.00 0.00 0.00 94 1028.2
20220929050017 45 225 0.0 0.0 0.00 0.00 0.00 94 1028.2
20220929044536 45 225 0.0 0.0 0.00 0.00 0.00 94 1028.4
20220929043025 45 225 0.0 0.0 0.00 0.00 0.00 94 1028.5
20220929041511 46 225 0.0 0.0 0.00 0.00 0.00 93 1028.4
20220929040007 46 225 0.0 0.0 0.00 0.00 0.00 93 1028.5
20220929034507 47 225 0.0 0.0 0.00 0.00 0.00 93 1028.4